YAOGAN-30 U

导读 | 星芒AI

“遥感三十二号”(YAOGAN-30 U)是中国研制的一颗遥感卫星,主要用于科学实验、国土资源普查、农作物估产及防灾减灾等领域。该卫星属于遥感三十二号系列,具备高分辨率对地观测能力,能够提供高质量的遥感数据,支持国家在环境监测、气象预报和空间科学研究等方面的应用。该系列卫星通常由多颗卫星组成星座,以提升数据获取的时效性和覆盖范围。

基本信息
目录编号:
46807
目录名称:
YAOGAN-30 U
国际标识:
2020-076A
轨道中心:
EARTH
卫星名称:
YAOGAN-30 U
卫星全名:
--
卫星状态:
在轨 (已飞行1835 天)
发射日期:
2020-10-26 UTC
国别 :
中国 (CN)
星等 :
--
轨道信息
数据来源 国际轨道数据 AOE轨道数据
星历时间 2025-11-04T20:14:29+0800
6小时前
查看轨道信息
2025-11-04T06:00:00+0800
20小时前
查看轨道信息
半长轴 6941.762km 6941.759km
偏心率 0.0000585 0.0000407
轨道倾角 34.996° 34.995°
近地点辐角 233.958° 237.186°
升交点赤经 19.170° 22.778°
平近点角 126.107° 151.150°
近地点 563.22km 563.341km
远地点 564.034km 563.907km
周期 95.932分钟 95.932分钟
每日圈数 15.010605 15.010617
详细信息
使用方式:
暂无
2D轨道图
3D轨道图
轨道高度分析图
轨道倾角分析图
轨道综合分析图
查看轨道综合分析图